Wind_Speed
27 28 29 31 31 31 33 33 32 32 32 33 33 33 32 30 28 27 27 27 27 27 27 27 27 27 27 26 26 25 25 26 26 27 28 30 32 34 36 37 39 40 40 40 40 40 40 40 39 38 38 37 37 36 36 35 34 32 31 29 28 27 25 24 24 24 24 24 23 23 23 23 24 25 25 26 26 25 24 23 22 21 22 22 23 23
28 28 29 30 30 31 32 33 33 32 32 31 31 32 32 31 29 27 27 27 27 27 27 28 28 28 27 27 27 27 27 27 27 28 29 30 31 32 33 34 35 36 37 38 38 38 38 38 37 37 36 36 36 35 34 33 32 30 29 27 26 25 24 24 24 24 24 24 23 22 22 22 23 24 25 25 26 26 25 23 22 22 23 23 24 25
26 26 27 27 28 29 30 30 30 30 31 31 30 31 33 32 30 29 28 27 26 27 27 28 28 28 28 28 28 28 28 28 29 29 30 30 31 31 32 32 33 34 34 34 35 35 35 35 35 34 34 33 33 32 32 31 29 28 27 26 25 24 24 24 24 24 24 24 23 22 22 22 23 23 24 24 25 25 25 24 23 23 23 24 25 26
24 24 24 24 25 27 28 28 27 28 30 31 32 33 33 33 32 31 29 28 27 27 27 28 28 29 29 29 29 29 29 29 30 30 30 31 31 31 31 32 32 32 32 33 33 32 32 32 32 32 31 31 30 30 29 28 27 26 25 25 24 24 24 25 25 25 25 24 23 23 23 23 23 23 23 24 24 24 24 24 23 23 24 24 25 25
25 24 24 23 23 24 25 26 25 26 29 32 33 33 33 33 32 32 31 30 29 28 28 28 28 29 29 30 30 30 30 30 30 30 31 31 31 31 31 31 31 31 31 31 31 30 30 30 30 29 29 29 28 28 27 26 26 25 25 25 25 25 25 25 26 26 26 25 25 24 24 23 23 23 23 23 24 24 23 23 23 23 23 23 23 23
27 26 25 25 24 24 24 23 24 26 29 31 33 33 33 33 32 32 32 31 30 30 29 29 29 29 29 30 30 30 30 30 30 31 31 31 31 31 31 31 30 30 30 30 29 29 29 29 29 28 28 28 27 27 26 26 25 25 25 25 26 26 26 26 26 27 26 26 25 25 24 24 23 23 23 23 23 23 23 23 23 23 22 21 20 20
29 28 27 26 26 26 25 24 25 27 29 30 31 33 33 33 32 32 32 31 31 31 31 31 30 30 30 30 30 30 30 30 31 31 31 32 32 32 32 31 31 30 30 30 30 29 29 29 29 29 28 28 28 27 26 26 26 26 26 26 26 27 27 27 27 27 27 27 26 26 25 24 23 23 23 24 23 23 23 23 22 21 20 19 19 19
30 29 28 28 28 27 27 27 28 29 30 29 29 29 29 31 31 31 31 31 32 32 32 32 31 31 31 30 31 31 31 31 31 31 32 32 32 33 33 33 32 32 32 31 31 31 30 30 30 30 29 29 28 28 27 27 26 26 27 27 27 27 27 27 27 27 27 27 26 26 25 24 23 23 24 24 24 23 23 23 21 20 18 18 18 19
29 29 29 28 28 27 27 27 28 29 29 29 28 27 26 26 27 28 29 30 31 32 32 32 32 32 32 32 32 32 32 31 31 32 32 32 32 33 33 33 33 33 33 33 32 32 32 31 31 30 30 30 29 28 28 27 27 27 27 27 27 27 27 27 27 27 27 27 26 26 25 24 23 24 24 24 24 23 23 22 21 19 19 19 19 20
29 29 28 28 28 27 27 26 26 25 27 28 28 27 27 26 25 26 27 28 29 30 31 31 32 32 32 32 33 33 33 33 32 32 32 32 32 33 33 33 34 34 34 33 33 33 32 32 31 31 30 30 29 28 28 27 27 27 27 27 28 27 27 27 27 27 27 27 27 26 25 24 24 24 25 24 24 23 23 22 20 19 19 20 21 21
28 28 28 27 26 27 27 26 25 25 27 28 29 30 29 28 27 28 29 28 28 28 30 31 31 31 31 31 32 33 34 33 33 32 31 31 32 33 33 33 34 33 33 33 33 33 32 32 31 31 30 30 29 29 28 28 28 28 28 28 28 28 28 27 27 27 27 27 26 26 25 25 25 25 25 25 24 24 23 21 20 19 19 20 21 22
27 27 26 25 25 26 27 27 27 28 29 29 30 30 30 29 28 28 29 29 29 28 28 30 31 31 32 31 32 33 34 34 33 32 31 31 32 32 33 34 34 34 33 33 33 33 32 31 31 30 30 30 29 29 29 28 28 28 28 28 28 28 28 28 28 27 27 27 26 26 25 25 26 26 25 25 24 24 23 21 19 19 19 20 22 24
25 25 25 25 26 26 26 26 28 29 29 29 29 28 28 27 26 26 26 28 28 27 27 29 30 32 34 34 34 35 35 35 35 34 33 32 32 32 33 33 34 34 34 34 34 33 32 32 31 31 30 30 30 29 29 29 29 29 29 29 29 29 29 28 28 27 27 27 26 26 26 26 26 26 25 25 24 23 23 21 20 19 19 20 23 25
24 24 24 25 26 26 26 26 26 26 27 27 27 27 26 25 25 24 25 26 27 26 26 27 29 31 33 36 37 37 37 37 37 36 36 35 33 33 32 33 34 35 35 35 35 35 34 33 32 32 31 31 30 30 30 30 30 30 30 30 30 30 29 29 28 27 27 27 27 27 27 27 27 26 26 25 24 23 22 21 20 20 20 22 25 28
23 23 23 24 25 25 25 25 26 26 25 25 25 25 25 25 25 25 25 26 27 27 26 26 27 28 29 33 36 37 37 37 37 37 38 37 36 35 34 33 34 34 35 36 36 36 35 35 34 33 33 32 31 31 31 31 31 30 31 30 30 30 30 29 28 27 27 27 28 28 29 28 27 26 26 25 24 24 23 22 21 21 21 24 28 30
23 22 22 24 25 25 24 24 24 25 25 24 24 24 23 24 24 25 27 27 27 26 25 26 26 26 26 29 32 35 35 36 36 37 38 38 38 37 36 34 34 34 34 35 36 36 36 36 35 35 34 33 32 32 31 31 31 31 31 31 31 30 30 29 28 28 28 28 29 30 29 27 26 26 26 26 25 25 24 23 22 22 22 25 29 32
24 23 23 24 24 24 24 23 24 24 24 24 23 23 23 24 24 25 26 26 25 25 26 26 26 26 25 25 28 31 32 32 33 34 36 36 37 38 37 35 34 33 34 34 35 36 36 36 36 35 34 33 33 32 32 31 31 31 32 32 31 31 30 29 29 28 29 29 31 31 29 27 26 26 26 26 26 26 26 25 25 24 24 26 29 31
25 24 24 24 24 24 23 23 23 23 23 23 23 23 24 24 25 25 25 25 26 26 27 27 27 27 25 23 25 28 29 28 29 30 32 33 35 36 37 35 34 33 33 33 33 34 34 35 35 34 34 33 33 32 32 32 32 32 32 32 31 31 30 29 29 29 30 31 32 31 29 26 25 26 26 26 26 27 28 28 27 27 27 27 29 30
25 25 24 25 25 24 23 23 23 23 23 23 23 23 24 25 25 25 26 27 27 27 28 28 28 29 28 26 26 27 27 27 27 28 29 31 32 33 34 34 33 32 32 32 32 32 33 33 33 33 33 33 33 33 32 32 32 32 32 32 31 30 30 30 30 30 31 32 33 32 28 26 26 26 26 26 26 27 29 29 29 29 28 29 29 30
26 25 25 25 25 25 25 25 24 23 23 22 22 22 22 23 23 24 26 28 29 28 29 31 32 31 30 28 26 26 27 27 27 28 29 30 30 31 33 32 32 31 31 31 31 31 31 31 32 32 32 32 33 32 32 32 32 32 32 31 31 30 30 30 30 31 32 34 34 32 29 27 26 26 26 25 26 28 29 30 30 30 29 29 29 30
28 28 27 26 25 26 26 25 24 24 23 23 23 24 24 24 24 24 25 26 27 29 31 33 34 33 32 31 28 27 28 28 29 29 30 29 29 30 32 32 32 31 30 30 30 29 29 30 30 31 31 31 31 31 31 31 31 31 31 31 30 30 30 31 31 31 33 34 35 33 30 28 26 26 25 25 27 28 30 30 30 30 29 29 29 29
30 30 29 27 26 26 26 26 26 26 26 26 27 28 28 27 27 25 23 22 23 24 26 28 30 31 31 30 30 30 31 31 31 30 29 27 26 28 32 32 31 30 30 29 28 28 28 28 29 29 30 30 30 30 30 30 30 31 31 30 30 30 31 32 32 32 33 34 35 34 31 29 27 26 26 26 28 29 30 31 30 29 29 28 28 29
32 31 30 29 28 28 28 27 27 27 27 27 28 30 31 31 31 29 27 25 24 23 23 24 25 26 27 28 30 32 33 32 32 30 28 27 26 26 28 29 29 29 29 28 27 27 27 27 28 28 29 29 29 29 28 29 29 30 30 30 30 31 32 33 33 33 33 33 34 33 32 30 28 27 27 28 29 31 31 31 30 29 29 28 28 29
32 33 32 31 30 30 30 30 29 28 27 27 28 29 30 32 33 34 34 33 32 31 29 27 26 25 24 26 29 32 33 33 32 30 29 28 27 27 27 28 28 28 28 28 27 27 27 27 27 28 28 29 28 27 27 27 28 29 30 30 30 31 33 34 34 33 33 33 33 33 32 31 30 29 28 29 30 31 31 31 30 29 29 29 29 30
31 31 31 30 30 30 30 30 30 29 27 26 27 27 27 28 30 32 34 35 36 36 35 34 32 30 27 25 26 29 32 32 32 32 31 29 28 28 29 30 30 29 29 29 28 28 27 27 28 28 28 28 28 27 26 26 27 28 29 30 31 32 33 34 35 35 34 33 33 33 33 32 31 29 29 30 30 31 31 30 30 29 29 29 30 31
30 30 30 29 29 29 30 30 30 29 28 27 26 25 24 24 24 26 28 30 32 33 34 34 34 33 31 28 27 27 29 30 31 32 32 31 28 27 29 30 30 30 29 29 29 29 28 27 27 28 28 28 27 26 25 25 26 28 29 30 31 32 33 34 35 35 35 34 33 32 32 31 30 29 29 29 30 30 30 29 29 29 29 30 30 31
28 28 28 28 29 29 29 29 28 27 26 25 25 24 23 23 24 25 25 26 26 28 29 31 32 32 31 30 29 28 27 28 29 30 31 31 31 29 28 29 29 29 28 29 30 29 27 26 26 27 27 27 26 25 24 24 25 27 29 30 31 31 32 34 35 35 35 33 32 31 30 29 29 28 29 29 30 30 29 28 28 28 29 30 31 32
26 26 27 28 28 27 26 25 24 24 23 23 23 23 24 26 27 28 27 24 23 23 26 28 29 29 29 30 30 29 27 27 27 27 27 29 31 31 29 28 28 28 28 29 29 29 27 26 25 25 25 25 24 23 23 23 24 26 29 30 31 31 32 33 34 34 34 33 31 30 30 29 28 28 28 29 30 29 29 28 28 28 29 30 31 31
25 25 26 26 26 24 22 21 22 22 22 23 24 25 26 28 30 31 29 25 22 22 25 26 27 27 28 29 30 30 29 28 27 25 24 26 29 30 28 27 28 29 28 28 29 28 27 26 25 24 24 23 23 22 21 21 23 25 28 30 31 32 32 32 33 34 34 33 32 31 30 29 28 28 29 29 30 29 28 28 28 29 29 30 31 30
23 23 24 24 23 22 20 21 23 23 23 23 24 25 25 26 27 28 27 25 23 23 24 23 23 24 26 26 27 28 29 29 28 25 23 24 27 28 28 28 29 29 28 27 27 27 27 26 25 24 23 22 22 21 21 21 22 25 28 30 31 32 32 32 33 33 34 34 33 32 31 29 29 29 29 30 30 30 29 28 28 29 29 30 29 29
23 23 23 23 23 22 21 22 23 23 22 22 22 22 23 22 22 22 22 23 25 25 25 23 21 20 21 22 24 25 26 27 27 27 26 26 27 28 27 28 29 29 28 27 24 22 20 22 24 25 23 22 21 21 21 22 23 25 27 29 31 32 32 32 32 32 33 33 33 33 32 31 30 30 30 31 31 30 29 29 29 29 29 29 28 28
26 25 25 25 24 24 24 24 24 24 23 22 22 22 22 23 22 20 20 20 23 26 27 27 25 23 22 21 21 23 22 22 24 26 27 27 28 28 28 29 29 29 29 28 26 22 16 14 18 22 22 21 21 22 22 22 23 25 27 29 30 31 32 31 31 31 31 31 32 32 32 31 31 31 31 31 31 31 30 29 29 28 28 28 28 28
27 27 27 27 27 26 26 26 26 26 27 26 25 25 25 26 26 24 23 22 22 24 26 29 29 29 27 25 25 24 23 21 21 22 23 25 27 28 28 29 29 29 29 29 29 26 21 16 16 18 20 20 21 21 22 24 25 26 28 30 31 32 32 31 31 30 30 30 30 30 31 31 31 31 32 32 32 31 30 29 28 28 27 27 27 27
25 25 25 25 25 24 24 24 24 24 25 26 26 26 26 25 25 25 25 25 24 24 25 26 27 28 29 29 29 28 27 25 22 19 18 21 23 26 26 27 28 29 29 29 29 28 26 23 21 20 21 20 20 21 22 24 26 27 29 31 33 34 34 33 33 32 32 31 31 30 30 31 31 31 32 32 32 31 30 28 27 27 26 26 26 27
23 23 22 21 21 21 21 21 21 21 22 22 22 23 23 23 23 23 23 23 23 23 24 24 24 25 26 27 28 28 29 28 25 21 18 19 20 22 23 25 27 28 28 29 29 29 28 27 25 24 23 23 22 21 22 24 26 28 30 32 34 35 35 35 35 35 34 34 33 32 32 31 31 32 33 33 33 31 29 28 27 26 25 25 26 26
24 23 22 21 21 21 21 20 20 20 20 20 20 20 20 20 20 20 20 20 20 21 21 22 22 23 25 26 28 28 29 28 27 25 24 22 21 20 20 22 23 24 26 27 27 27 26 26 25 25 24 24 24 24 23 23 25 28 30 33 34 35 35 36 37 37 37 36 36 35 34 33 33 33 34 34 33 31 29 28 26 25 25 25 25 25
24 24 23 23 22 22 22 21 20 19 19 19 19 18 18 18 18 18 18 18 18 19 20 20 20 21 22 24 26 27 28 27 27 27 28 27 26 24 22 22 21 22 23 23 24 24 23 23 23 24 24 23 24 25 25 24 25 27 30 32 33 34 35 36 37 38 38 38 37 36 35 34 34 34 34 34 33 31 29 28 27 26 25 25 24 24
21 21 21 20 20 20 20 21 20 20 19 18 18 17 17 17 17 17 17 18 18 19 20 20 21 21 22 22 24 25 27 27 27 28 29 29 30 29 28 27 24 23 22 22 21 21 21 21 21 22 23 23 24 25 26 26 26 27 29 31 32 33 35 36 37 38 38 38 38 37 36 35 35 35 35 35 33 32 31 29 28 27 26 25 24 24
22 21 19 18 17 18 19 20 20 20 19 18 18 17 17 17 17 18 19 20 21 23 24 24 23 23 23 23 24 25 26 28 28 28 28 29 30 31 32 31 29 28 26 25 24 23 23 22 22 23 23 24 24 25 26 28 28 29 29 31 32 34 35 36 37 38 39 39 39 38 37 36 36 36 36 36 35 33 32 32 30 29 28 27 26 25
26 25 23 21 19 19 19 20 20 20 20 20 20 20 19 20 20 21 22 23 24 26 27 26 25 25 25 25 25 26 27 28 28 27 27 28 29 30 31 31 31 31 30 29 28 27 26 26 26 26 26 26 25 24 25 29 30 30 30 31 34 35 36 37 38 39 39 40 40 39 39 38 37 37 37 37 36 35 34 33 32 31 29 28 27 26
26 26 24 23 21 19 19 19 20 20 21 21 21 22 22 23 24 24 24 25 25 25 25 24 24 24 24 25 25 26 27 27 27 26 26 27 28 28 28 28 29 29 29 30 31 30 30 29 29 29 29 28 26 25 27 30 32 32 31 33 36 37 38 39 39 40 40 41 41 40 40 39 38 38 38 37 37 36 35 34 32 31 29 28 27 27
24 23 22 21 19 18 17 18 19 20 21 21 21 22 23 24 25 25 25 24 23 22 22 21 21 21 22 23 24 24 25 25 26 26 27 27 26 25 25 26 26 27 28 29 31 32 31 31 31 31 31 31 29 27 27 30 32 33 33 34 36 37 38 40 41 42 42 42 42 41 41 40 39 39 39 38 37 36 35 34 33 31 30 28 27 26
21 21 20 18 17 17 17 18 18 19 19 19 20 21 22 22 23 24 23 21 21 20 20 20 20 21 21 22 22 22 22 23 24 26 28 29 28 27 26 26 26 26 27 29 31 33 33 33 32 32 33 33 32 31 29 31 33 34 34 34 36 38 40 42 43 43 43 43 43 43 43 42 41 40 39 39 38 37 36 34 33 32 30 28 27 26
20 20 19 18 16 16 16 17 18 19 19 19 19 19 19 20 20 20 20 19 18 18 18 18 18 19 20 20 20 19 20 20 23 26 29 31 31 31 30 29 27 27 27 29 32 34 34 34 34 34 34 34 35 35 34 33 34 34 34 34 36 39 42 44 44 44 44 45 45 44 44 43 42 41 40 39 39 38 36 35 34 33 31 29 28 26
18 17 16 15 14 14 16 17 19 20 20 20 20 19 19 19 19 19 18 17 16 16 16 16 17 18 19 19 19 19 19 20 22 25 28 30 31 31 31 30 29 28 27 29 31 33 34 35 35 35 34 35 36 37 36 36 35 35 34 34 35 38 41 43 44 45 46 46 46 46 45 44 43 42 41 41 40 39 38 37 35 34 33 31 29 27
16 15 15 16 16 18 19 20 20 20 20 20 21 21 21 22 22 22 21 20 20 20 21 21 21 20 20 20 20 19 19 20 21 23 25 27 28 29 29 29 29 28 27 27 29 31 33 34 35 35 36 36 37 38 38 37 36 35 35 34 35 37 40 42 44 45 46 46 47 47 46 45 44 43 42 41 41 40 39 38 37 35 34 32 31 29
22 20 19 18 18 18 18 19 19 20 21 22 22 22 22 22 23 23 23 23 22 22 21 21 21 20 20 19 19 19 19 19 19 19 21 23 24 25 25 26 26 27 26 26 26 28 31 32 33 35 36 37 37 38 38 38 37 36 35 34 35 36 40 42 44 45 46 47 47 47 47 46 45 44 43 42 41 40 39 38 37 36 35 33 32 30
18 17 17 17 18 19 20 20 21 21 21 22 22 22 22 22 21 21 21 21 21 20 19 19 19 19 20 19 19 19 19 19 19 18 18 20 22 23 23 22 23 23 24 24 25 26 29 31 33 35 37 38 38 38 38 38 37 37 36 35 34 36 39 42 43 44 46 47 47 48 47 47 46 45 44 43 42 41 40 39 38 37 36 34 32 31
16 16 17 18 19 20 21 22 22 22 22 22 22 22 21 21 20 19 19 18 17 16 17 17 18 19 19 19 19 19 19 19 19 18 18 19 20 22 22 21 20 20 21 22 23 25 28 31 34 35 36 36 37 38 38 38 38 37 36 35 34 35 37 40 42 43 45 46 47 47 48 47 47 46 45 44 43 42 41 40 39 38 37 35 33 31
17 17 18 19 20 20 21 22 22 22 22 21 21 20 20 20 19 18 16 15 14 15 16 17 18 19 19 18 18 18 18 18 18 17 17 18 19 20 21 20 19 18 19 20 22 25 28 31 34 35 36 36 36 36 36 37 38 37 36 35 34 34 36 39 41 42 44 45 46 47 47 47 46 46 45 44 44 43 42 41 40 39 38 36 34 32
18 19 19 20 20 21 22 22 22 22 21 21 20 20 20 19 18 16 14 14 14 16 17 18 19 19 19 18 17 18 18 18 18 18 18 18 19 20 21 20 19 18 17 18 21 24 28 30 32 33 34 36 37 36 35 36 37 36 36 35 34 34 35 37 39 41 42 44 45 46 46 46 46 45 45 45 44 43 43 42 41 41 39 37 35 33
Wind_Direction
267 268 268 269 270 271 271 270 270 269 270 271 273 274 273 271 269 266 264 263 263 263 262 262 262 262 261 260 256 252 248 246 246 247 248 248 247 245 243 242 241 240 239 239 239 239 240 241 243 245 248 252 255 257 259 259 260 260 261 262 262 260 257 254 251 252 254 255 254 252 251 249 248 247 246 245 244 243 242 241 241 242 244 246 247 250
272 273 273 274 274 272 271 271 270 269 269 269 271 272 272 271 268 265 262 261 261 261 261 260 259 259 258 258 256 254 251 249 248 248 248 248 247 245 243 242 241 241 240 240 241 242 243 244 247 249 252 255 257 259 259 260 260 260 259 258 257 255 252 250 250 252 254 255 254 251 250 251 251 250 248 247 246 245 243 243 243 245 247 248 249 251
275 275 276 276 276 274 272 271 270 269 269 268 267 268 269 269 268 265 262 261 260 260 260 259 258 258 257 256 256 255 253 252 250 249 249 249 249 248 247 246 246 245 245 246 246 247 248 250 251 253 255 257 258 258 258 258 258 257 255 254 252 250 249 249 250 253 255 255 253 251 250 252 254 252 250 247 246 245 244 243 244 246 248 250 251 251
270 270 272 274 275 274 273 271 269 268 268 267 267 267 268 268 268 266 263 261 260 260 259 259 258 257 257 256 256 255 254 254 252 251 250 250 250 250 250 250 250 250 250 250 251 252 252 253 254 255 256 256 257 257 256 256 254 253 251 249 248 248 249 250 252 254 256 256 255 253 252 254 254 252 249 246 245 244 243 244 245 246 248 249 250 250
267 267 269 270 271 272 272 271 269 267 267 267 267 268 269 268 267 266 264 262 261 260 260 259 258 258 257 257 257 256 256 256 255 254 252 251 250 251 251 252 252 252 252 252 253 253 254 254 254 255 255 255 255 254 253 252 250 249 247 247 247 248 249 251 253 254 256 256 256 255 254 254 253 250 247 243 242 242 242 243 244 245 245 246 247 245
266 266 268 268 268 268 268 268 268 267 267 268 269 270 270 269 267 266 265 263 262 261 260 259 258 258 258 258 257 257 257 257 257 257 255 254 252 251 251 251 252 252 253 253 254 254 255 255 255 255 255 254 253 252 251 249 247 246 246 246 247 248 250 252 253 255 255 256 255 255 254 252 250 247 243 240 239 239 240 242 242 242 241 240 239 237
267 266 266 266 266 265 265 265 265 266 267 269 271 272 272 270 268 266 265 263 262 261 260 258 258 258 259 259 258 258 258 258 258 258 257 256 255 253 252 252 252 252 253 253 254 255 256 256 256 255 255 254 253 251 249 248 247 246 246 247 248 249 250 252 254 254 255 255 254 253 252 250 247 243 239 237 236 237 239 240 239 237 235 232 229 226
268 267 266 265 265 265 265 265 265 266 267 268 270 271 273 273 272 270 266 263 261 261 260 259 258 258 259 259 260 259 259 258 258 258 258 257 256 255 254 253 253 253 253 254 255 255 256 256 256 256 255 254 252 251 250 248 247 247 248 249 250 251 252 253 254 255 254 253 252 251 249 246 243 239 236 234 234 235 237 238 236 233 229 224 220 217
266 267 266 265 264 264 266 266 267 268 268 268 267 267 268 270 272 272 270 267 264 262 260 260 260 260 259 260 261 261 260 259 258 258 258 258 257 256 255 254 254 253 254 254 254 255 255 255 255 254 254 253 252 251 250 249 249 249 250 251 253 254 255 255 256 255 254 252 250 247 245 242 238 234 232 231 232 233 236 235 233 229 224 217 213 210
264 265 266 265 264 263 263 264 265 266 266 266 266 266 265 265 266 267 267 267 266 265 263 262 262 262 261 261 262 262 261 260 259 259 258 258 257 256 256 255 254 253 253 253 253 253 253 253 253 252 252 252 251 251 250 250 251 252 253 254 256 257 258 258 258 256 253 250 246 243 239 236 232 229 228 228 229 231 232 232 231 228 222 214 209 207
264 263 264 264 263 262 261 261 260 259 260 262 264 266 265 263 262 262 262 262 262 263 264 264 262 262 262 262 262 262 262 261 261 260 260 258 257 256 255 255 254 253 253 253 252 252 251 251 250 250 250 250 250 250 251 251 252 254 255 257 258 259 260 260 259 257 252 247 242 237 233 230 226 224 224 224 225 227 228 228 228 227 223 215 210 207
264 264 263 263 262 261 261 260 259 258 258 260 262 264 264 263 262 261 261 260 259 259 260 261 261 261 260 260 261 262 262 262 262 262 262 260 258 257 255 254 253 253 253 252 252 251 250 249 249 249 249 249 249 250 251 252 253 255 257 258 259 261 262 262 260 257 251 243 237 232 228 225 222 221 221 220 221 222 224 224 226 228 226 219 213 209
264 264 263 262 262 261 261 261 261 260 260 259 259 260 261 262 262 262 261 260 258 256 256 257 259 260 260 260 261 262 263 263 263 263 263 263 261 259 256 254 253 252 252 252 252 251 250 250 249 249 249 249 249 250 251 253 254 255 257 258 259 261 262 262 260 255 247 239 232 227 224 221 220 220 220 218 217 218 220 222 225 228 227 220 215 212
264 264 263 263 262 261 260 259 259 260 259 259 258 258 259 260 261 261 260 259 258 257 255 256 258 260 262 262 262 262 263 263 263 262 262 262 262 260 259 256 254 253 252 252 252 252 251 251 251 250 250 250 250 251 252 253 254 255 256 257 259 259 260 260 257 252 243 234 226 222 220 219 219 219 219 217 216 215 217 220 225 228 225 219 215 214
265 265 265 263 262 260 259 258 258 258 258 258 259 259 260 261 260 259 258 257 258 258 258 258 259 261 263 265 265 264 263 263 263 263 262 261 260 260 260 259 257 254 253 253 252 252 252 252 252 252 252 252 252 253 254 254 255 255 255 256 257 258 258 257 254 247 239 229 221 217 217 218 219 220 218 217 215 215 215 217 221 224 223 218 215 213
265 265 265 264 263 261 260 259 258 259 259 260 260 259 259 258 258 257 256 256 257 257 257 258 260 262 263 265 266 266 265 264 264 263 262 261 259 259 259 259 258 257 255 254 253 253 253 253 253 253 253 254 254 254 255 255 255 255 255 255 255 255 255 253 249 242 233 224 217 215 215 218 220 220 219 216 215 214 214 214 216 219 218 217 214 212
263 263 263 263 263 262 261 260 259 259 260 261 260 259 257 256 256 256 256 255 255 255 254 255 257 260 262 264 266 267 267 266 265 264 263 262 260 259 258 259 259 258 257 255 254 253 253 253 253 254 254 255 256 256 257 257 256 255 254 253 253 252 251 249 244 236 227 219 214 213 215 219 221 221 219 217 215 214 213 212 212 213 214 214 213 211
263 262 262 262 262 263 263 261 260 260 260 260 260 260 258 257 257 256 255 255 254 254 254 254 256 258 260 261 263 265 267 267 267 266 265 264 262 260 258 258 259 259 258 256 254 253 253 253 254 254 255 256 257 258 258 258 256 254 253 251 250 249 247 244 238 231 222 215 212 213 216 219 221 222 220 218 216 215 213 210 209 209 210 211 212 212
263 262 261 261 262 262 263 261 260 260 260 260 262 263 263 261 259 258 256 255 254 254 254 255 256 257 258 259 261 263 266 267 267 267 267 266 265 263 260 259 259 259 258 257 255 254 253 254 255 255 257 258 259 259 259 258 256 254 251 249 247 245 242 238 233 226 218 213 211 212 215 218 221 222 221 220 218 217 214 210 208 207 208 210 211 213
261 260 258 260 261 262 262 261 260 259 259 259 261 263 263 262 260 258 257 256 255 254 254 256 257 257 257 257 259 261 263 265 266 267 267 266 266 265 264 262 261 260 258 256 255 254 254 254 256 257 258 259 259 260 259 258 255 252 249 247 244 240 236 232 227 221 215 212 212 213 215 217 220 221 222 221 220 219 216 211 207 206 207 208 211 213
260 260 258 259 260 261 261 260 259 257 255 255 255 255 257 259 260 260 259 257 254 253 253 255 256 256 256 255 256 258 260 262 264 264 265 265 265 265 266 265 263 261 258 256 254 254 254 255 256 258 259 260 260 259 258 256 254 250 247 243 239 235 231 227 222 217 213 212 212 213 214 216 219 221 222 221 222 221 218 213 208 206 206 208 210 213
258 259 259 259 258 258 259 260 259 257 254 253 252 252 252 255 259 263 265 264 260 256 254 253 253 254 254 253 253 255 258 261 262 261 261 261 262 265 268 268 265 262 258 256 254 254 254 255 257 258 260 260 260 259 258 255 252 248 244 240 235 230 225 221 217 213 212 212 212 213 215 217 220 222 222 222 223 223 220 215 211 208 208 209 211 213
256 257 259 258 257 257 259 260 260 259 258 256 254 253 251 250 253 257 261 265 266 265 264 262 259 256 252 249 249 252 256 259 261 260 257 257 259 262 266 266 264 261 258 255 254 253 254 255 257 259 260 261 261 260 258 254 250 245 240 235 230 225 221 217 213 211 211 211 211 212 215 218 221 223 223 223 224 223 221 217 213 211 211 211 213 215
256 258 259 259 259 258 259 259 260 260 260 259 258 257 255 251 250 252 256 259 261 263 265 267 269 267 260 252 248 249 253 256 258 257 256 255 256 259 261 262 261 260 258 255 253 253 253 255 256 258 259 260 261 260 258 254 248 242 236 231 226 221 218 214 211 209 210 210 212 214 218 221 223 223 223 223 223 222 220 217 215 213 213 214 215 217
259 260 261 261 261 261 261 262 262 262 261 261 260 259 259 258 257 257 257 257 257 259 261 266 271 275 273 266 258 253 253 255 257 257 256 254 254 256 257 258 258 257 256 255 254 253 253 254 255 257 258 259 259 259 257 253 246 239 233 227 222 218 216 213 210 209 210 213 216 220 223 224 224 223 223 223 223 221 220 218 216 215 214 215 216 218
263 263 264 264 264 264 265 265 265 264 263 261 260 260 261 263 263 263 262 261 260 260 262 265 268 270 272 273 269 263 259 258 257 256 255 253 252 252 253 255 255 254 254 254 253 253 252 252 253 254 255 257 257 257 256 251 244 236 229 223 220 217 215 213 211 211 212 216 221 225 226 225 223 222 221 221 221 220 219 218 217 216 215 215 217 219
268 268 268 268 267 267 266 265 265 264 263 260 258 257 257 260 262 262 262 261 261 260 261 261 263 265 267 269 269 267 264 261 258 255 253 251 249 248 249 252 253 253 251 251 252 252 250 249 250 251 252 254 255 255 254 249 241 234 227 221 217 216 216 215 213 213 215 219 223 225 224 222 221 220 220 220 220 219 218 218 217 215 215 216 217 218
270 270 270 270 270 269 268 266 264 262 261 260 259 258 256 256 257 258 258 258 259 258 258 257 258 259 261 262 263 264 264 263 260 255 251 249 246 245 246 249 251 251 249 250 251 250 248 246 246 247 249 251 253 252 251 245 238 230 224 218 216 215 216 216 215 215 217 221 223 223 222 220 218 218 218 219 219 218 218 217 216 215 214 215 216 217
271 271 271 272 272 271 268 267 265 263 262 261 260 259 257 254 253 252 252 253 255 256 256 256 255 254 255 256 258 260 261 261 259 256 250 247 245 244 244 246 249 250 249 250 251 249 246 244 243 244 246 248 249 249 246 241 234 227 221 217 214 214 215 216 216 217 219 222 223 223 221 219 218 218 219 219 219 218 217 216 215 214 214 214 215 216
272 273 274 276 275 273 269 268 267 265 262 260 258 257 256 253 250 248 248 246 247 251 257 259 258 255 253 253 255 257 257 257 256 254 251 248 246 245 245 246 248 249 249 249 250 250 248 245 242 240 242 244 245 244 241 236 230 224 219 216 214 214 215 216 216 217 219 221 223 223 222 220 219 219 219 219 218 218 217 215 214 213 213 214 214 215
274 274 275 275 275 272 268 266 265 264 262 259 257 256 255 253 251 250 248 244 242 244 253 263 267 263 258 253 252 252 252 252 252 252 252 250 248 248 248 248 249 249 249 248 246 247 250 250 246 241 239 240 241 240 237 233 227 222 218 215 215 216 217 217 217 218 218 220 221 222 222 221 220 220 220 220 219 217 216 215 214 213 213 214 214 216
274 273 271 270 269 268 264 262 261 261 260 259 259 258 259 258 258 256 254 250 245 245 250 258 264 267 266 262 257 253 251 250 250 251 251 250 250 251 251 251 251 251 251 249 245 241 243 249 250 246 240 239 238 237 235 231 226 221 217 215 215 217 218 219 219 219 219 219 219 219 219 219 219 220 221 220 219 217 216 215 214 214 214 214 216 218
274 272 271 269 268 267 266 264 262 261 261 260 259 259 260 261 261 260 259 257 254 252 252 254 258 263 266 268 266 264 260 257 254 251 248 248 249 251 254 254 253 253 253 251 248 244 239 239 245 248 246 243 240 238 235 231 226 221 217 215 216 217 219 220 221 221 220 219 219 218 217 217 218 220 221 220 219 217 216 215 215 215 215 216 218 220
275 273 272 272 271 270 268 267 265 263 262 261 261 260 261 261 261 261 261 260 259 257 256 256 257 259 262 266 268 268 266 264 260 255 249 247 248 250 252 253 253 252 252 251 249 246 241 239 242 248 252 252 248 243 237 232 227 222 219 217 217 218 219 220 221 221 221 220 219 218 217 218 219 220 220 219 218 217 216 215 216 216 217 218 220 221
275 274 272 272 271 270 269 267 265 264 263 261 260 260 260 260 260 260 260 260 260 260 259 259 259 259 259 261 263 264 263 262 262 261 259 255 251 248 248 249 250 249 248 248 248 246 243 243 244 248 253 256 255 250 242 235 229 225 221 220 220 220 220 220 221 221 221 221 220 219 218 218 219 219 218 218 217 217 216 216 216 217 218 220 221 222
273 272 270 270 270 270 270 268 267 265 263 261 260 259 258 258 258 259 259 259 260 262 263 263 262 261 260 260 259 259 258 259 260 262 263 263 259 253 246 244 244 244 243 243 243 243 243 245 248 251 253 255 256 254 248 240 232 227 224 223 222 222 221 221 221 221 221 221 220 220 219 219 218 217 216 216 216 216 216 216 216 217 218 220 222 223
274 270 268 268 268 268 269 268 267 266 265 264 263 261 259 259 259 259 260 261 262 264 266 266 265 262 261 260 259 259 258 258 259 259 259 260 260 258 252 248 245 243 240 238 238 240 242 245 249 252 253 253 254 255 253 245 236 230 226 224 224 223 223 222 222 222 222 222 221 221 220 219 218 216 214 214 215 215 215 216 216 217 218 219 221 222
279 274 270 267 266 266 266 267 267 268 268 268 267 265 263 261 260 260 261 264 267 270 270 270 269 267 264 262 260 259 258 257 256 255 255 256 256 255 253 251 249 247 244 242 240 241 243 243 246 249 251 252 253 254 254 249 241 233 227 225 224 223 223 222 223 223 223 223 223 223 222 221 218 216 214 213 213 213 213 214 215 216 216 218 219 220
281 282 281 277 273 269 267 268 268 269 269 269 268 267 266 264 264 264 266 269 274 278 280 278 276 274 272 269 265 261 258 255 253 252 252 253 254 253 251 249 248 247 247 248 248 248 249 247 247 248 249 251 252 252 252 250 245 237 230 225 222 221 221 221 222 222 223 224 224 224 223 222 219 216 214 214 213 213 213 213 214 215 216 216 217 218
277 282 286 286 282 276 272 271 271 271 271 271 271 270 270 269 269 270 273 276 280 283 284 283 280 277 276 275 271 266 260 254 250 248 249 251 253 252 249 247 246 246 247 249 250 251 250 250 250 250 251 251 250 248 247 250 248 242 233 224 219 217 218 219 220 221 222 223 224 224 224 222 220 218 216 215 215 215 216 216 217 217 218 218 218 218
278 281 285 286 284 280 275 273 273 272 273 273 273 273 272 273 274 276 278 280 281 281 281 281 279 277 275 273 271 267 262 254 248 245 248 251 251 249 248 248 247 248 248 249 251 252 251 250 250 250 250 250 248 246 247 249 250 246 237 227 221 218 217 218 219 220 221 222 224 224 224 223 221 219 217 217 218 219 220 221 221 221 222 222 222 222
278 280 283 283 281 278 274 272 272 272 274 275 276 275 275 276 278 279 280 279 277 275 274 274 273 273 272 270 269 267 263 255 248 246 248 251 252 250 249 250 250 250 250 251 252 253 252 250 249 248 248 248 246 243 243 247 249 248 242 233 226 221 218 217 217 218 219 221 222 223 224 223 221 220 218 218 219 220 222 224 225 225 225 225 226 227
278 278 279 278 276 274 272 273 275 277 280 280 280 279 280 281 282 282 279 274 272 272 273 272 271 270 269 268 268 266 263 257 252 249 249 250 250 250 250 250 250 251 251 252 252 252 252 251 249 248 248 248 246 243 239 241 245 247 244 236 227 219 214 213 215 217 218 220 221 222 223 223 222 221 220 220 220 221 223 224 226 228 228 228 228 228
281 279 277 275 275 277 280 282 285 288 290 288 286 285 285 284 282 277 272 268 268 269 271 271 269 267 265 263 263 262 260 258 256 253 251 248 246 245 246 246 247 248 250 251 250 249 248 249 249 249 249 249 247 243 239 239 241 243 242 237 230 222 217 216 215 216 216 218 220 221 223 223 222 221 221 221 221 221 223 224 226 227 229 229 229 229
281 277 275 274 275 279 283 288 292 294 294 293 291 287 285 283 279 275 271 269 270 270 271 272 272 271 268 266 264 263 262 260 259 258 256 251 247 244 244 245 245 246 248 250 251 250 247 246 247 249 249 248 246 241 237 237 239 241 241 238 232 227 224 222 220 218 216 216 218 220 222 222 222 221 220 219 220 221 223 224 225 226 228 228 228 228
293 292 291 289 289 288 289 291 293 293 291 288 286 283 281 279 277 276 276 277 278 278 278 279 277 275 271 268 267 265 264 264 264 264 263 258 253 248 245 245 245 245 247 249 251 251 249 248 248 249 248 246 242 238 236 235 237 238 239 237 232 226 222 221 220 219 218 217 217 219 220 221 220 219 217 218 219 220 223 224 225 226 228 228 228 228
300 301 300 299 297 296 295 295 294 292 289 286 284 283 282 281 279 278 278 279 279 279 280 280 278 273 267 265 265 265 265 264 264 263 264 265 260 254 249 246 245 246 247 250 251 251 250 249 249 249 246 241 235 232 233 234 235 236 237 236 232 225 220 219 219 220 219 218 218 219 219 219 218 216 216 217 218 219 221 223 224 226 227 228 228 228
300 300 299 298 298 299 299 298 296 294 291 290 289 289 288 287 284 282 280 279 277 276 276 276 274 269 266 265 265 264 264 263 261 260 260 264 264 260 254 249 247 247 248 249 249 249 247 246 246 246 244 239 234 231 230 232 234 235 235 235 231 225 220 219 219 219 219 219 219 219 219 218 216 215 215 215 216 217 218 220 222 224 226 227 228 228
295 296 297 298 300 301 301 301 300 298 295 294 294 294 293 292 290 287 283 279 274 270 267 268 267 265 265 265 265 264 262 260 258 257 257 260 262 261 258 254 251 250 250 250 249 247 245 243 241 239 238 237 235 233 232 232 233 234 235 234 231 226 221 220 219 219 218 217 218 219 220 220 219 218 217 214 213 214 216 217 219 221 224 225 226 227
293 294 297 299 301 301 301 301 300 299 297 295 293 292 292 290 288 285 281 277 271 266 263 262 261 260 260 261 261 261 260 258 256 255 255 257 259 260 260 258 257 256 255 253 250 247 244 241 237 235 233 232 232 232 231 231 232 233 233 232 230 226 222 220 219 218 217 216 217 218 219 219 220 219 218 215 213 213 214 215 217 219 222 223 224 225
293 294 296 298 299 300 300 301 300 299 297 294 292 289 287 286 284 281 279 276 271 266 263 260 257 255 255 256 257 258 257 257 257 256 256 256 258 260 261 262 262 263 262 258 253 248 243 238 234 231 229 229 229 229 228 229 230 230 229 228 227 225 222 220 219 218 217 216 216 217 217 216 216 217 216 215 213 212 213 214 216 218 221 222 223 223
Height
1445 1445 1444 1444 1444 1444 1443 1444 1444 1444 1443 1443 1442 1441 1441 1442 1442 1442 1442 1442 1442 1442 1441 1441 1441 1441 1441 1441 1442 1442 1442 1443 1443 1443 1444 1444 1444 1444 1445 1445 1445 1446 1446 1447 1448 1449 1449 1450 1450 1451 1452 1452 1453 1453 1454 1454 1454 1455 1456 1456 1457 1457 1458 1458 1459 1459 1459 1460 1460 1460 1461 1461 1462 1463 1464 1464 1465 1466 1467 1467 1468 1469 1469 1470 1470 1471
1442 1442 1442 1441 1442 1441 1440 1440 1441 1441 1440 1440 1440 1439 1438 1439 1439 1439 1439 1440 1440 1439 1439 1439 1439 1439 1439 1439 1439 1440 1440 1440 1440 1441 1441 1442 1442 1442 1443 1443 1444 1444 1444 1445 1445 1446 1447 1447 1448 1449 1449 1450 1450 1451 1451 1452 1452 1453 1453 1454 1454 1455 1455 1456 1456 1457 1458 1458 1458 1459 1459 1459 1460 1461 1461 1462 1463 1464 1465 1465 1466 1467 1467 1468 1469 1469
1441 1440 1439 1439 1439 1438 1438 1438 1439 1438 1438 1438 1438 1437 1436 1436 1437 1437 1437 1437 1438 1437 1437 1437 1437 1437 1437 1437 1437 1437 1438 1438 1438 1439 1439 1439 1440 1440 1441 1441 1441 1442 1442 1443 1443 1444 1444 1445 1445 1446 1447 1447 1448 1448 1449 1449 1450 1450 1451 1452 1452 1453 1453 1454 1454 1455 1455 1456 1456 1457 1457 1458 1458 1459 1459 1460 1461 1462 1463 1463 1464 1464 1465 1466 1467 1467
1440 1439 1438 1437 1437 1436 1435 1436 1436 1436 1435 1435 1434 1434 1434 1434 1434 1434 1434 1435 1435 1435 1435 1434 1434 1434 1434 1434 1434 1435 1435 1435 1436 1436 1436 1437 1437 1438 1438 1439 1439 1439 1440 1440 1441 1441 1442 1442 1443 1444 1444 1444 1445 1446 1446 1447 1447 1448 1449 1449 1450 1450 1451 1451 1452 1453 1453 1454 1454 1455 1455 1456 1456 1457 1458 1459 1459 1460 1460 1461 1462 1463 1463 1464 1465 1465
1437 1437 1436 1436 1435 1434 1434 1434 1434 1434 1433 1432 1432 1432 1432 1432 1431 1431 1431 1432 1432 1432 1432 1432 1432 1432 1432 1432 1432 1432 1433 1433 1433 1433 1434 1434 1434 1435 1435 1436 1436 1437 1437 1438 1438 1439 1439 1439 1440 1441 1441 1442 1443 1443 1444 1444 1445 1446 1446 1447 1448 1448 1449 1449 1450 1450 1451 1452 1452 1453 1453 1454 1454 1455 1456 1457 1457 1458 1459 1459 1460 1461 1461 1462 1463 1463
1434 1434 1434 1434 1434 1433 1432 1432 1432 1431 1430 1429 1429 1429 1429 1429 1429 1429 1429 1429 1429 1429 1429 1429 1429 1430 1430 1429 1429 1430 1430 1430 1430 1431 1431 1431 1432 1432 1433 1433 1434 1434 1435 1435 1435 1436 1436 1437 1438 1438 1439 1439 1440 1441 1441 1442 1443 1444 1444 1445 1445 1446 1447 1447 1448 1448 1449 1449 1450 1450 1451 1452 1453 1454 1454 1455 1455 1456 1457 1458 1459 1459 1460 1460 1461 1461
1431 1432 1432 1432 1431 1430 1430 1430 1429 1429 1428 1428 1427 1426 1426 1425 1425 1425 1426 1426 1426 1426 1426 1426 1427 1427 1427 1427 1427 1427 1428 1428 1428 1428 1428 1429 1429 1430 1430 1431 1431 1432 1432 1433 1433 1434 1434 1434 1435 1436 1436 1437 1438 1438 1439 1440 1440 1441 1442 1443 1443 1444 1444 1445 1445 1446 1446 1447 1448 1448 1449 1450 1451 1452 1452 1453 1454 1454 1455 1456 1457 1458 1458 1459 1459 1459
1429 1429 1429 1429 1428 1428 1427 1427 1426 1426 1426 1426 1425 1425 1424 1423 1422 1422 1423 1423 1423 1423 1423 1424 1424 1424 1424 1425 1425 1425 1425 1425 1425 1425 1426 1426 1427 1427 1428 1428 1429 1429 1429 1430 1430 1431 1431 1432 1433 1433 1434 1434 1435 1436 1437 1437 1438 1439 1439 1440 1441 1441 1442 1443 1443 1444 1444 1445 1445 1446 1447 1448 1449 1449 1450 1451 1452 1453 1454 1454 1455 1456 1456 1457 1457 1458
1426 1426 1425 1426 1426 1425 1425 1424 1424 1423 1423 1423 1423 1423 1423 1422 1421 1420 1420 1419 1419 1420 1420 1420 1421 1421 1422 1422 1422 1422 1422 1423 1423 1423 1424 1424 1424 1424 1425 1425 1426 1426 1427 1427 1428 1428 1429 1429 1430 1431 1431 1432 1433 1434 1434 1435 1436 1436 1437 1438 1439 1439 1440 1440 1441 1441 1442 1442 1443 1444 1445 1446 1447 1448 1449 1449 1450 1451 1452 1453 1454 1454 1455 1455 1456 1457
1424 1423 1423 1423 1423 1423 1423 1422 1421 1421 1420 1420 1420 1420 1420 1420 1420 1419 1419 1418 1417 1417 1417 1418 1418 1419 1419 1419 1419 1419 1419 1419 1420 1420 1421 1421 1421 1422 1422 1423 1423 1424 1424 1424 1425 1426 1426 1427 1428 1428 1429 1429 1430 1431 1432 1433 1434 1434 1435 1435 1436 1437 1437 1438 1439 1439 1439 1440 1441 1442 1443 1444 1445 1446 1447 1447 1448 1449 1450 1451 1452 1453 1453 1454 1454 1455
1421 1421 1421 1420 1420 1419 1419 1419 1419 1419 1417 1417 1417 1417 1417 1418 1418 1417 1416 1416 1416 1415 1415 1415 1415 1416 1416 1417 1417 1416 1416 1417 1417 1418 1418 1419 1419 1419 1419 1420 1420 1421 1421 1422 1422 1423 1424 1424 1425 1426 1426 1427 1428 1429 1429 1430 1431 1432 1432 1433 1434 1434 1435 1435 1436 1436 1437 1438 1439 1439 1441 1442 1443 1444 1445 1446 1446 1448 1449 1449 1450 1451 1452 1452 1453 1454
1418 1418 1418 1417 1417 1417 1416 1416 1416 1415 1415 1415 1415 1415 1414 1414 1415 1415 1414 1414 1414 1414 1414 1413 1413 1413 1413 1414 1414 1414 1414 1414 1414 1415 1415 1416 1416 1416 1417 1417 1418 1418 1419 1419 1419 1420 1421 1422 1423 1423 1424 1425 1425 1426 1427 1428 1429 1429 1430 1430 1431 1431 1432 1433 1433 1434 1434 1435 1436 1437 1439 1440 1441 1442 1443 1444 1444 1446 1447 1448 1448 1449 1450 1451 1452 1453
1416 1415 1415 1414 1414 1414 1414 1414 1413 1413 1412 1413 1413 1413 1412 1412 1413 1412 1412 1411 1411 1412 1412 1411 1410 1409 1410 1410 1410 1411 1411 1411 1411 1412 1413 1413 1413 1414 1414 1414 1415 1415 1416 1416 1417 1418 1418 1419 1420 1421 1421 1422 1423 1424 1424 1425 1426 1427 1427 1428 1429 1429 1429 1430 1431 1431 1432 1433 1434 1435 1437 1438 1439 1440 1441 1442 1443 1444 1445 1446 1447 1447 1448 1449 1450 1452
1413 1413 1413 1412 1411 1411 1411 1412 1411 1410 1410 1410 1410 1410 1410 1410 1410 1410 1410 1409 1409 1409 1409 1409 1408 1407 1407 1406 1407 1407 1408 1408 1408 1409 1409 1410 1410 1411 1411 1411 1412 1412 1413 1414 1414 1415 1416 1416 1417 1418 1419 1419 1420 1421 1422 1423 1424 1424 1425 1425 1426 1427 1427 1428 1428 1429 1430 1431 1432 1434 1435 1436 1437 1438 1439 1440 1441 1442 1443 1444 1445 1446 1447 1448 1449 1450
1411 1411 1410 1409 1409 1409 1409 1409 1409 1408 1408 1408 1408 1409 1409 1409 1408 1408 1408 1407 1406 1407 1407 1407 1406 1405 1404 1403 1403 1404 1404 1405 1405 1405 1406 1406 1407 1408 1409 1409 1409 1409 1410 1410 1411 1412 1413 1414 1414 1415 1416 1417 1418 1419 1419 1420 1421 1421 1422 1423 1424 1424 1425 1425 1426 1427 1428 1429 1430 1432 1433 1434 1435 1436 1437 1438 1439 1440 1441 1442 1443 1444 1445 1446 1447 1448
1409 1409 1408 1407 1406 1406 1406 1407 1407 1406 1406 1406 1407 1407 1407 1406 1406 1405 1405 1404 1404 1405 1405 1404 1404 1403 1402 1401 1400 1400 1401 1402 1402 1402 1403 1403 1404 1405 1406 1406 1406 1406 1407 1408 1408 1409 1410 1411 1411 1412 1413 1414 1415 1416 1417 1418 1418 1419 1419 1420 1421 1421 1422 1423 1424 1424 1425 1427 1428 1430 1431 1432 1433 1434 1435 1436 1437 1438 1439 1440 1442 1443 1444 1445 1446 1447
1406 1406 1405 1404 1404 1404 1404 1404 1404 1404 1404 1404 1404 1404 1404 1404 1403 1403 1403 1402 1402 1402 1402 1402 1401 1401 1399 1399 1398 1397 1398 1399 1399 1399 1400 1400 1400 1401 1402 1403 1404 1404 1404 1404 1405 1406 1407 1408 1409 1409 1410 1411 1412 1413 1414 1415 1415 1416 1417 1417 1418 1419 1419 1420 1421 1422 1423 1425 1426 1428 1429 1430 1431 1432 1433 1434 1435 1437 1438 1439 1440 1441 1442 1444 1444 1445
1403 1403 1403 1402 1402 1401 1401 1402 1402 1402 1402 1402 1402 1402 1402 1401 1401 1401 1400 1400 1400 1399 1399 1399 1399 1398 1398 1398 1396 1395 1395 1397 1397 1397 1397 1397 1398 1398 1399 1400 1400 1401 1401 1402 1402 1404 1404 1405 1406 1406 1407 1408 1409 1410 1411 1412 1413 1413 1414 1414 1415 1416 1417 1418 1419 1420 1421 1423 1424 1426 1427 1428 1429 1430 1431 1432 1434 1435 1436 1437 1438 1439 1441 1442 1443 1444
1400 1400 1400 1400 1399 1399 1399 1399 1399 1399 1400 1400 1400 1400 1399 1399 1399 1398 1397 1397 1397 1397 1396 1396 1395 1395 1396 1395 1394 1393 1394 1394 1395 1395 1395 1395 1395 1395 1395 1397 1397 1398 1398 1399 1399 1400 1401 1402 1403 1404 1404 1405 1406 1407 1408 1409 1410 1410 1411 1412 1413 1413 1414 1415 1416 1417 1419 1420 1422 1424 1425 1426 1427 1429 1429 1430 1432 1433 1434 1435 1436 1437 1439 1440 1441 1443
1398 1398 1397 1397 1397 1397 1396 1396 1397 1397 1398 1398 1398 1398 1397 1396 1396 1395 1395 1395 1395 1395 1394 1394 1393 1393 1393 1393 1393 1392 1392 1392 1393 1393 1393 1393 1393 1392 1392 1393 1394 1395 1395 1396 1396 1398 1399 1399 1400 1401 1401 1402 1403 1404 1405 1406 1407 1407 1408 1409 1410 1411 1412 1413 1414 1415 1417 1418 1420 1421 1423 1424 1425 1426 1428 1429 1430 1431 1432 1433 1434 1435 1437 1438 1439 1441
1395 1394 1394 1395 1395 1395 1394 1393 1394 1395 1395 1395 1394 1394 1393 1393 1393 1393 1393 1393 1392 1392 1391 1390 1389 1389 1390 1390 1390 1390 1389 1390 1390 1390 1390 1390 1390 1390 1389 1390 1391 1392 1392 1393 1394 1395 1395 1396 1397 1398 1399 1399 1400 1401 1402 1403 1404 1404 1405 1406 1407 1408 1409 1410 1411 1413 1414 1416 1418 1419 1420 1422 1423 1424 1425 1427 1428 1429 1430 1431 1432 1434 1435 1436 1438 1439
1392 1391 1391 1393 1393 1392 1390 1390 1391 1392 1392 1392 1392 1391 1390 1390 1390 1390 1390 1390 1389 1389 1388 1387 1387 1386 1387 1387 1387 1387 1386 1387 1388 1388 1389 1389 1388 1387 1387 1387 1388 1389 1389 1390 1391 1392 1393 1394 1394 1395 1396 1396 1397 1398 1399 1400 1401 1401 1402 1403 1404 1405 1407 1408 1409 1411 1413 1414 1416 1417 1419 1420 1421 1422 1424 1425 1426 1428 1429 1429 1431 1432 1433 1434 1436 1437
1389 1388 1388 1389 1389 1389 1388 1388 1388 1389 1389 1389 1389 1388 1388 1388 1388 1387 1387 1387 1386 1385 1385 1385 1385 1384 1384 1384 1384 1383 1383 1384 1385 1386 1387 1386 1386 1385 1385 1384 1385 1386 1387 1388 1389 1390 1390 1391 1392 1392 1393 1394 1394 1395 1396 1397 1398 1399 1399 1400 1402 1403 1404 1406 1407 1409 1410 1412 1414 1415 1417 1418 1419 1420 1422 1423 1424 1425 1426 1428 1429 1430 1431 1433 1434 1435
1386 1385 1385 1385 1385 1385 1385 1385 1385 1385 1386 1386 1386 1386 1385 1385 1385 1384 1384 1383 1382 1381 1381 1381 1381 1382 1382 1382 1380 1379 1380 1381 1382 1383 1384 1384 1384 1384 1383 1383 1383 1384 1384 1386 1387 1387 1388 1389 1389 1389 1390 1391 1392 1393 1394 1394 1395 1396 1397 1398 1399 1401 1402 1404 1405 1407 1408 1410 1412 1413 1414 1416 1417 1418 1419 1421 1422 1423 1424 1425 1427 1428 1429 1430 1432 1433
1383 1382 1382 1382 1382 1382 1382 1382 1382 1382 1383 1383 1383 1382 1382 1383 1383 1382 1382 1381 1380 1380 1379 1379 1379 1378 1378 1379 1378 1377 1377 1378 1379 1380 1381 1381 1381 1381 1380 1380 1381 1382 1383 1384 1384 1385 1386 1386 1387 1387 1388 1388 1389 1390 1391 1392 1392 1393 1394 1395 1397 1398 1400 1401 1403 1405 1406 1408 1409 1411 1412 1414 1415 1416 1417 1419 1420 1421 1422 1424 1425 1426 1427 1429 1430 1431
1380 1380 1379 1379 1379 1379 1379 1379 1379 1379 1379 1380 1380 1380 1380 1380 1380 1380 1380 1379 1379 1379 1379 1378 1377 1376 1376 1376 1376 1376 1375 1376 1377 1378 1378 1379 1379 1379 1378 1378 1379 1380 1380 1381 1382 1382 1383 1384 1384 1384 1385 1386 1386 1387 1388 1389 1390 1391 1392 1393 1395 1396 1398 1399 1401 1403 1404 1406 1407 1409 1410 1411 1412 1414 1415 1416 1418 1419 1420 1421 1423 1424 1425 1426 1428 1429
1377 1377 1377 1377 1377 1377 1377 1377 1376 1376 1376 1377 1377 1378 1378 1379 1378 1378 1377 1377 1377 1378 1377 1376 1374 1374 1374 1374 1374 1374 1374 1374 1374 1374 1376 1377 1377 1376 1375 1375 1376 1378 1378 1379 1379 1380 1381 1381 1381 1382 1382 1383 1384 1385 1386 1387 1388 1389 1390 1391 1393 1394 1396 1397 1399 1400 1402 1404 1405 1406 1408 1409 1410 1411 1413 1414 1415 1417 1418 1419 1421 1422 1423 1424 1425 1427
1375 1375 1374 1374 1374 1374 1374 1374 1374 1374 1374 1374 1374 1375 1376 1376 1376 1374 1373 1374 1375 1376 1374 1373 1373 1373 1373 1372 1372 1372 1373 1373 1372 1372 1373 1374 1374 1374 1374 1374 1374 1375 1376 1376 1376 1377 1378 1379 1379 1379 1380 1381 1382 1383 1384 1384 1385 1387 1388 1389 1391 1392 1394 1395 1397 1399 1400 1401 1403 1404 1405 1407 1408 1409 1410 1412 1413 1415 1416 1417 1419 1420 1421 1422 1423 1424
1373 1372 1372 1372 1372 1371 1371 1371 1371 1371 1371 1372 1372 1373 1374 1374 1373 1371 1370 1372 1373 1373 1372 1371 1371 1371 1371 1370 1370 1371 1372 1371 1370 1370 1371 1372 1371 1371 1372 1372 1373 1373 1374 1374 1374 1375 1376 1376 1376 1377 1378 1378 1379 1380 1381 1382 1384 1384 1386 1387 1389 1390 1392 1394 1395 1396 1398 1399 1401 1402 1403 1404 1406 1407 1409 1410 1411 1413 1414 1415 1416 1418 1419 1420 1421 1422
1371 1370 1370 1369 1369 1369 1369 1369 1369 1369 1369 1369 1370 1370 1370 1370 1369 1369 1369 1369 1370 1370 1369 1369 1369 1369 1369 1369 1369 1369 1369 1369 1369 1369 1370 1370 1369 1369 1370 1370 1370 1371 1372 1373 1373 1373 1373 1373 1374 1375 1376 1376 1377 1378 1379 1380 1381 1383 1384 1385 1387 1388 1389 1391 1393 1394 1396 1397 1398 1399 1401 1402 1404 1405 1407 1408 1409 1410 1412 1413 1414 1415 1416 1418 1419 1420
1369 1369 1368 1368 1368 1368 1368 1367 1367 1367 1367 1367 1367 1367 1367 1366 1366 1366 1366 1367 1367 1367 1367 1367 1367 1366 1366 1367 1367 1366 1365 1366 1367 1367 1368 1368 1367 1367 1368 1369 1369 1369 1370 1371 1372 1372 1371 1371 1372 1373 1374 1374 1375 1376 1377 1378 1379 1380 1382 1383 1385 1386 1387 1389 1390 1392 1394 1395 1396 1398 1399 1400 1402 1404 1404 1406 1407 1409 1410 1411 1412 1413 1414 1415 1416 1418
1366 1366 1366 1365 1365 1365 1365 1365 1364 1364 1364 1364 1364 1364 1363 1363 1363 1364 1364 1364 1364 1365 1365 1364 1364 1364 1364 1364 1364 1363 1363 1364 1365 1365 1365 1365 1365 1365 1366 1367 1367 1367 1368 1369 1369 1370 1371 1371 1370 1370 1372 1373 1374 1374 1375 1376 1377 1379 1380 1381 1382 1384 1385 1387 1388 1390 1391 1393 1394 1395 1397 1399 1400 1401 1403 1404 1405 1406 1408 1409 1410 1411 1412 1413 1414 1415
1364 1364 1363 1363 1363 1362 1362 1362 1362 1362 1362 1362 1362 1361 1361 1361 1361 1361 1361 1362 1362 1363 1363 1363 1362 1362 1362 1362 1361 1361 1361 1362 1363 1363 1363 1363 1363 1363 1364 1365 1365 1365 1366 1367 1367 1368 1369 1369 1369 1369 1370 1371 1372 1373 1374 1375 1376 1377 1378 1379 1380 1381 1383 1385 1386 1388 1389 1391 1392 1394 1395 1397 1398 1399 1401 1402 1403 1404 1405 1407 1408 1409 1410 1411 1412 1414
1361 1360 1360 1360 1360 1360 1360 1360 1360 1360 1360 1359 1359 1359 1359 1359 1359 1359 1359 1359 1360 1360 1361 1361 1361 1361 1360 1360 1359 1359 1359 1360 1361 1361 1361 1361 1361 1361 1361 1362 1363 1363 1364 1364 1365 1366 1366 1367 1367 1368 1368 1369 1370 1372 1372 1373 1374 1375 1377 1377 1378 1379 1381 1382 1384 1385 1387 1388 1389 1391 1393 1394 1396 1397 1399 1400 1401 1402 1404 1404 1406 1407 1408 1409 1411 1412
1359 1358 1358 1358 1358 1358 1358 1358 1358 1358 1358 1357 1357 1357 1358 1358 1358 1358 1358 1358 1358 1358 1358 1358 1359 1359 1359 1358 1358 1357 1357 1358 1359 1360 1360 1359 1359 1359 1360 1360 1360 1361 1361 1362 1363 1363 1364 1364 1365 1366 1367 1367 1368 1369 1371 1372 1373 1374 1375 1375 1376 1377 1378 1379 1381 1382 1384 1385 1387 1388 1390 1391 1393 1395 1396 1398 1399 1400 1402 1403 1404 1405 1406 1408 1409 1410
1356 1356 1356 1356 1356 1356 1355 1355 1355 1355 1355 1355 1355 1355 1355 1355 1355 1356 1356 1355 1355 1356 1356 1356 1356 1356 1356 1356 1355 1355 1356 1357 1358 1358 1358 1358 1358 1358 1359 1358 1359 1359 1360 1360 1360 1361 1362 1362 1363 1364 1365 1366 1366 1367 1368 1370 1371 1372 1373 1374 1374 1375 1376 1377 1379 1380 1381 1383 1384 1385 1387 1389 1390 1392 1394 1395 1397 1398 1400 1401 1402 1404 1405 1406 1407 1408
1354 1354 1354 1354 1354 1354 1353 1353 1353 1353 1353 1353 1353 1353 1353 1353 1353 1353 1354 1353 1353 1353 1353 1353 1354 1354 1354 1354 1354 1353 1354 1355 1356 1356 1356 1356 1357 1357 1357 1357 1357 1358 1358 1358 1359 1359 1360 1361 1361 1362 1363 1364 1364 1365 1366 1368 1369 1370 1371 1371 1372 1373 1374 1375 1376 1378 1379 1380 1382 1383 1384 1386 1388 1389 1391 1393 1395 1397 1398 1399 1400 1402 1403 1404 1405 1406
1353 1352 1352 1351 1351 1351 1351 1351 1351 1351 1351 1351 1351 1351 1351 1351 1351 1351 1351 1351 1351 1351 1351 1351 1351 1351 1351 1351 1351 1351 1351 1352 1353 1354 1354 1354 1354 1355 1355 1356 1356 1357 1357 1357 1357 1357 1358 1359 1359 1360 1360 1361 1362 1363 1364 1365 1367 1368 1369 1370 1370 1371 1372 1373 1374 1376 1377 1378 1380 1381 1383 1384 1386 1388 1389 1391 1393 1394 1396 1397 1398 1399 1401 1402 1403 1404
1351 1350 1350 1349 1349 1349 1349 1349 1349 1349 1349 1349 1349 1349 1349 1349 1349 1349 1349 1349 1349 1348 1348 1348 1348 1348 1348 1348 1348 1348 1349 1349 1350 1350 1351 1352 1352 1352 1353 1354 1354 1355 1355 1355 1356 1356 1356 1357 1357 1358 1358 1359 1360 1361 1362 1363 1364 1366 1367 1368 1369 1369 1370 1371 1372 1374 1375 1376 1378 1379 1381 1383 1384 1386 1387 1389 1390 1391 1393 1394 1395 1397 1398 1399 1400 1402
1349 1348 1348 1348 1348 1348 1348 1348 1348 1348 1348 1348 1347 1347 1347 1347 1347 1346 1346 1346 1346 1345 1345 1345 1345 1345 1345 1345 1346 1346 1346 1346 1346 1347 1348 1349 1349 1350 1350 1351 1351 1352 1353 1354 1354 1354 1354 1355 1356 1356 1357 1358 1359 1359 1360 1360 1361 1363 1365 1366 1367 1367 1367 1369 1370 1371 1373 1374 1375 1377 1379 1380 1382 1384 1385 1386 1388 1389 1390 1391 1393 1394 1396 1397 1398 1399
1347 1347 1347 1347 1347 1347 1347 1346 1346 1346 1346 1346 1345 1345 1345 1344 1344 1344 1344 1344 1343 1343 1343 1343 1343 1343 1343 1343 1343 1343 1343 1343 1344 1345 1345 1346 1347 1347 1348 1348 1349 1349 1351 1351 1351 1351 1352 1353 1354 1354 1355 1356 1357 1358 1358 1358 1359 1361 1363 1364 1364 1364 1365 1366 1368 1369 1370 1372 1373 1374 1376 1378 1380 1381 1383 1384 1386 1387 1388 1390 1391 1393 1394 1395 1396 1397
1346 1345 1345 1345 1345 1345 1345 1344 1344 1344 1344 1343 1343 1343 1342 1342 1342 1342 1341 1341 1341 1341 1341 1341 1341 1340 1340 1340 1340 1340 1340 1341 1341 1342 1343 1343 1344 1344 1345 1345 1346 1347 1348 1349 1349 1349 1349 1350 1351 1352 1353 1354 1355 1356 1356 1356 1356 1358 1360 1361 1362 1363 1364 1365 1365 1366 1368 1369 1371 1372 1374 1375 1377 1379 1380 1382 1384 1385 1387 1388 1390 1391 1392 1394 1395 1396
1344 1343 1343 1343 1343 1343 1343 1342 1342 1342 1341 1341 1341 1340 1340 1340 1339 1339 1339 1339 1339 1339 1339 1339 1339 1339 1338 1338 1337 1338 1338 1338 1339 1339 1340 1340 1341 1341 1342 1343 1344 1344 1345 1346 1346 1346 1347 1348 1349 1349 1350 1351 1353 1353 1354 1354 1354 1355 1357 1358 1360 1361 1362 1362 1363 1364 1366 1367 1368 1370 1371 1373 1375 1377 1379 1380 1382 1383 1385 1386 1388 1389 1390 1392 1393 1394
1341 1341 1341 1340 1340 1340 1340 1340 1340 1339 1339 1339 1338 1338 1338 1338 1338 1338 1337 1337 1336 1336 1336 1337 1336 1336 1336 1336 1335 1336 1336 1336 1337 1337 1337 1337 1338 1339 1339 1340 1341 1342 1343 1344 1344 1344 1344 1345 1345 1346 1348 1349 1350 1350 1351 1351 1352 1353 1354 1355 1357 1357 1357 1358 1359 1361 1363 1364 1366 1367 1369 1371 1373 1375 1377 1378 1380 1381 1383 1384 1385 1387 1389 1390 1391 1393
1340 1340 1340 1340 1339 1339 1339 1338 1338 1337 1337 1337 1337 1336 1336 1336 1336 1336 1335 1335 1335 1334 1334 1334 1334 1334 1334 1334 1334 1334 1334 1334 1334 1334 1334 1334 1335 1336 1337 1338 1339 1339 1340 1340 1341 1342 1342 1342 1343 1344 1345 1347 1347 1347 1348 1348 1349 1350 1351 1353 1354 1355 1356 1357 1358 1359 1360 1362 1363 1365 1367 1369 1371 1373 1374 1376 1377 1379 1380 1382 1383 1384 1386 1388 1389 1390
1340 1339 1339 1338 1338 1338 1337 1337 1336 1336 1336 1335 1335 1335 1335 1334 1334 1334 1334 1333 1333 1333 1333 1333 1333 1333 1332 1332 1332 1332 1332 1332 1332 1332 1331 1331 1332 1333 1334 1335 1336 1337 1338 1338 1338 1339 1339 1340 1341 1342 1343 1344 1344 1344 1345 1346 1347 1348 1349 1350 1352 1353 1354 1355 1356 1357 1358 1359 1361 1362 1364 1366 1368 1370 1372 1373 1375 1376 1378 1379 1381 1382 1384 1385 1387 1388
1338 1338 1337 1337 1336 1336 1335 1335 1335 1334 1334 1334 1333 1333 1333 1333 1332 1332 1332 1331 1331 1331 1331 1331 1331 1331 1330 1330 1330 1330 1330 1330 1330 1330 1330 1329 1329 1330 1332 1333 1334 1335 1335 1335 1336 1337 1337 1338 1339 1340 1341 1341 1341 1342 1342 1343 1344 1345 1346 1348 1349 1350 1351 1352 1353 1354 1356 1357 1358 1360 1362 1364 1366 1368 1369 1371 1373 1374 1376 1378 1379 1380 1382 1383 1385 1386
1337 1337 1336 1336 1335 1334 1334 1334 1333 1333 1332 1332 1331 1331 1331 1330 1330 1330 1329 1329 1329 1329 1329 1329 1329 1329 1328 1328 1328 1328 1328 1328 1329 1329 1329 1328 1328 1328 1329 1330 1331 1332 1333 1333 1334 1334 1335 1336 1337 1337 1338 1338 1338 1339 1339 1341 1342 1343 1344 1345 1347 1348 1349 1349 1350 1352 1354 1355 1356 1357 1359 1361 1362 1364 1366 1369 1371 1372 1374 1375 1377 1378 1380 1381 1383 1384
1336 1335 1335 1334 1334 1333 1332 1332 1332 1331 1331 1330 1329 1329 1329 1328 1328 1328 1327 1327 1327 1327 1328 1327 1327 1327 1327 1326 1326 1326 1326 1326 1327 1327 1327 1327 1327 1327 1327 1328 1329 1330 1330 1330 1331 1331 1332 1334 1334 1335 1335 1335 1336 1336 1337 1338 1339 1340 1342 1343 1344 1345 1346 1347 1349 1350 1352 1353 1354 1355 1357 1358 1359 1361 1364 1366 1368 1369 1371 1373 1374 1376 1377 1379 1381 1383
1335 1334 1334 1333 1332 1332 1331 1331 1330 1330 1329 1329 1328 1328 1327 1327 1327 1326 1326 1326 1325 1325 1325 1325 1325 1325 1325 1324 1324 1325 1325 1325 1325 1325 1325 1326 1326 1325 1325 1326 1327 1328 1328 1328 1329 1329 1330 1331 1331 1332 1332 1333 1334 1334 1335 1336 1337 1338 1339 1341 1342 1343 1344 1345 1346 1348 1349 1350 1352 1353 1355 1357 1358 1360 1362 1364 1365 1367 1369 1371 1372 1374 1375 1377 1379 1381
1333 1333 1332 1332 1331 1330 1330 1329 1329 1328 1328 1327 1327 1327 1326 1326 1325 1325 1324 1324 1324 1324 1324 1324 1324 1323 1323 1323 1323 1323 1323 1323 1323 1323 1324 1324 1324 1324 1324 1324 1325 1326 1326 1326 1327 1327 1328 1329 1329 1329 1330 1330 1331 1332 1333 1334 1334 1336 1337 1338 1339 1340 1342 1343 1344 1345 1347 1348 1350 1351 1353 1355 1357 1358 1359 1361 1363 1365 1367 1368 1369 1371 1373 1375 1377 1379